Year,Month,Day,Hour,Minute,Value (Times are PST for temperature in C)
2018,03,13,00,00,-9.40
2018,03,13,00,01,-9.40
2018,03,13,00,02,-9.40
2018,03,13,00,03,-9.40
2018,03,13,00,04,-9.50
2018,03,13,00,05,-9.50
2018,03,13,00,06,-9.50
2018,03,13,00,07,-9.40
2018,03,13,00,08,-9.40
2018,03,13,00,09,-9.50
2018,03,13,00,10,-9.40
2018,03,13,00,11,-9.40
2018,03,13,00,12,-9.40
2018,03,13,00,13,-9.40
2018,03,13,00,14,-9.50
2018,03,13,00,15,-9.50
2018,03,13,00,16,-9.50
2018,03,13,00,17,-9.40
2018,03,13,00,18,-9.40
2018,03,13,00,19,-9.40
2018,03,13,00,20,-9.40
2018,03,13,00,21,-9.40
2018,03,13,00,22,-9.40
2018,03,13,00,23,-9.40
2018,03,13,00,24,-9.40
2018,03,13,00,25,-9.50
2018,03,13,00,26,-9.50
2018,03,13,00,27,-9.50
2018,03,13,00,28,-9.60
2018,03,13,00,29,-9.50
2018,03,13,00,30,-9.50
2018,03,13,00,31,-9.50
2018,03,13,00,32,-9.50
2018,03,13,00,33,-9.50
2018,03,13,00,34,-9.50
2018,03,13,00,35,-9.50
2018,03,13,00,36,-9.50
2018,03,13,00,37,-9.50
2018,03,13,00,38,-9.50
2018,03,13,00,39,-9.50
2018,03,13,00,40,-9.50
2018,03,13,00,41,-9.40
2018,03,13,00,42,-9.50
2018,03,13,00,43,-9.50
2018,03,13,00,44,-9.50
2018,03,13,00,45,-9.50
2018,03,13,00,46,-9.50
2018,03,13,00,47,-9.50
2018,03,13,00,48,-9.50
2018,03,13,00,49,-9.50
2018,03,13,00,50,-9.50
2018,03,13,00,51,-9.50
2018,03,13,00,52,-9.50
2018,03,13,00,53,-9.60
2018,03,13,00,54,-9.50
2018,03,13,00,55,-9.50
2018,03,13,00,56,-9.60
2018,03,13,00,57,-9.60
2018,03,13,00,58,-9.50
2018,03,13,00,59,-9.60
2018,03,13,01,00,-9.60
2018,03,13,01,01,-9.60
2018,03,13,01,02,-9.60
2018,03,13,01,03,-9.60
2018,03,13,01,04,-9.60
2018,03,13,01,05,-9.60
2018,03,13,01,06,-9.60
2018,03,13,01,07,-9.70
2018,03,13,01,08,-9.70
2018,03,13,01,09,-9.70
2018,03,13,01,10,-9.80
2018,03,13,01,11,-9.70
2018,03,13,01,12,-9.60
2018,03,13,01,13,-9.70
2018,03,13,01,14,-9.70
2018,03,13,01,15,-9.60
2018,03,13,01,16,-9.60
2018,03,13,01,17,-9.60
2018,03,13,01,18,-9.60
2018,03,13,01,19,-9.60
2018,03,13,01,20,-9.60
2018,03,13,01,21,-9.50
2018,03,13,01,22,-9.50
2018,03,13,01,23,-9.50
2018,03,13,01,24,-9.50
2018,03,13,01,25,-9.50
2018,03,13,01,26,-9.50
2018,03,13,01,27,-9.50
2018,03,13,01,28,-9.50
2018,03,13,01,29,-9.50
2018,03,13,01,30,-9.60
2018,03,13,01,31,-9.50
2018,03,13,01,32,-9.60
2018,03,13,01,33,-9.60
2018,03,13,01,34,-9.60
2018,03,13,01,35,-9.60
2018,03,13,01,36,-9.60
2018,03,13,01,37,-9.60
2018,03,13,01,38,-9.60
2018,03,13,01,39,-9.60
2018,03,13,01,40,-9.70
2018,03,13,01,41,-9.70
2018,03,13,01,42,-9.70
2018,03,13,01,43,-9.60
2018,03,13,01,44,-9.60
2018,03,13,01,45,-9.60
2018,03,13,01,46,-9.60
2018,03,13,01,47,-9.60
2018,03,13,01,48,-9.60
2018,03,13,01,49,-9.60
2018,03,13,01,50,-9.60
2018,03,13,01,51,-9.60
2018,03,13,01,52,-9.50
2018,03,13,01,53,-9.50
2018,03,13,01,54,-9.50
2018,03,13,01,55,-9.60
2018,03,13,01,56,-9.50
2018,03,13,01,57,-9.50
2018,03,13,01,58,-9.50
2018,03,13,01,59,-9.50
2018,03,13,02,00,-9.50
2018,03,13,02,01,-9.50
2018,03,13,02,02,-9.50
2018,03,13,02,03,-9.60
2018,03,13,02,04,-9.50
2018,03,13,02,05,-9.60
2018,03,13,02,06,-9.60
2018,03,13,02,07,-9.60
2018,03,13,02,08,-9.60
2018,03,13,02,09,-9.60
2018,03,13,02,10,-9.50
2018,03,13,02,11,-9.60
2018,03,13,02,12,-9.60
2018,03,13,02,13,-9.60
2018,03,13,02,14,-9.60
2018,03,13,02,15,-9.70
2018,03,13,02,16,-9.70
2018,03,13,02,17,-9.80
2018,03,13,02,18,-9.70
2018,03,13,02,19,-9.70
2018,03,13,02,20,-9.80
2018,03,13,02,21,-9.70
2018,03,13,02,22,-9.80
2018,03,13,02,23,-9.80
2018,03,13,02,24,-9.70
2018,03,13,02,25,-9.80
2018,03,13,02,26,-9.80
2018,03,13,02,27,-9.80
2018,03,13,02,28,-9.80
2018,03,13,02,29,-9.80
2018,03,13,02,30,-9.80
2018,03,13,02,31,-9.80
2018,03,13,02,32,-9.80
2018,03,13,02,33,-9.70
2018,03,13,02,34,-9.70
2018,03,13,02,35,-9.60
2018,03,13,02,36,-9.70
2018,03,13,02,37,-9.70
2018,03,13,02,38,-9.60
2018,03,13,02,39,-9.60
2018,03,13,02,40,-9.60
2018,03,13,02,41,-9.60
2018,03,13,02,42,-9.60
2018,03,13,02,43,-9.60
2018,03,13,02,44,-9.60
2018,03,13,02,45,-9.60
2018,03,13,02,46,-9.60
2018,03,13,02,47,-9.70
2018,03,13,02,48,-9.60
2018,03,13,02,49,-9.60
2018,03,13,02,50,-9.70
2018,03,13,02,51,-9.70
2018,03,13,02,52,-9.60
2018,03,13,02,53,-9.60
2018,03,13,02,54,-9.60
2018,03,13,02,55,-9.60
2018,03,13,02,56,-9.70
2018,03,13,02,57,-9.70
2018,03,13,02,58,-9.60
2018,03,13,02,59,-9.70
2018,03,13,03,00,-9.80
2018,03,13,03,01,-9.80
2018,03,13,03,02,-9.70
2018,03,13,03,03,-9.70
2018,03,13,03,04,-9.70
2018,03,13,03,05,-9.80
2018,03,13,03,06,-9.80
2018,03,13,03,07,-9.80
2018,03,13,03,08,-9.80
2018,03,13,03,09,-9.80
2018,03,13,03,10,-9.80
2018,03,13,03,11,-9.80
2018,03,13,03,12,-9.80
2018,03,13,03,13,-9.90
2018,03,13,03,14,-9.80
2018,03,13,03,15,-9.80
2018,03,13,03,16,-9.80
2018,03,13,03,17,-9.80
2018,03,13,03,18,-9.80
2018,03,13,03,19,-9.80
2018,03,13,03,20,-9.80
2018,03,13,03,21,-9.80
2018,03,13,03,22,-9.80
2018,03,13,03,23,-9.80
2018,03,13,03,24,-9.80
2018,03,13,03,25,-9.80
2018,03,13,03,26,-9.80
2018,03,13,03,27,-9.80
2018,03,13,03,28,-9.80
2018,03,13,03,29,-9.80
2018,03,13,03,30,-9.80
2018,03,13,03,31,-9.90
2018,03,13,03,32,-9.90
2018,03,13,03,33,-9.90
2018,03,13,03,34,-9.90
2018,03,13,03,35,-9.90
2018,03,13,03,36,-9.90
2018,03,13,03,37,-9.90
2018,03,13,03,38,-9.90
2018,03,13,03,39,-9.80
2018,03,13,03,40,-9.90
2018,03,13,03,41,-9.90
2018,03,13,03,42,-9.80
2018,03,13,03,43,-9.80
2018,03,13,03,44,-9.80
2018,03,13,03,45,-9.80
2018,03,13,03,46,-9.90
2018,03,13,03,47,-9.80
2018,03,13,03,48,-9.90
2018,03,13,03,49,-9.90
2018,03,13,03,50,-9.80
2018,03,13,03,51,-9.90
2018,03,13,03,52,-9.80
2018,03,13,03,53,-9.90
2018,03,13,03,54,-10.00
2018,03,13,03,55,-9.90
2018,03,13,03,56,-9.90
2018,03,13,03,57,-10.00
2018,03,13,03,58,-9.90
2018,03,13,03,59,-9.90
2018,03,13,04,00,-10.00
2018,03,13,04,01,-9.90
2018,03,13,04,02,-9.90
2018,03,13,04,03,-9.80
2018,03,13,04,04,-9.90
2018,03,13,04,05,-9.90
2018,03,13,04,06,-9.80
2018,03,13,04,07,-9.90
2018,03,13,04,08,-9.90
2018,03,13,04,09,-9.90
2018,03,13,04,10,-9.90
2018,03,13,04,11,-9.90
2018,03,13,04,12,-9.90
2018,03,13,04,13,-10.00
2018,03,13,04,14,-10.00
2018,03,13,04,15,-10.00
2018,03,13,04,16,-10.00
2018,03,13,04,17,-9.90
2018,03,13,04,18,-10.00
2018,03,13,04,19,-10.00
2018,03,13,04,20,-10.00
2018,03,13,04,21,-9.90
2018,03,13,04,22,-9.90
2018,03,13,04,23,-9.90
2018,03,13,04,24,-10.00
2018,03,13,04,25,-10.00
2018,03,13,04,26,-9.90
2018,03,13,04,27,-9.90
2018,03,13,04,28,-9.90
2018,03,13,04,29,-9.90
2018,03,13,04,30,-9.90
2018,03,13,04,31,-9.90
2018,03,13,04,32,-9.90
2018,03,13,04,33,-9.90
2018,03,13,04,34,-9.90
2018,03,13,04,35,-10.00
2018,03,13,04,36,-9.90
2018,03,13,04,37,-9.90
2018,03,13,04,38,-9.90
2018,03,13,04,39,-9.90
2018,03,13,04,40,-9.90
2018,03,13,04,41,-9.90
2018,03,13,04,42,-10.00
2018,03,13,04,43,-10.00
2018,03,13,04,44,-10.00
2018,03,13,04,45,-10.00
2018,03,13,04,46,-10.10
2018,03,13,04,47,-10.00
2018,03,13,04,48,-10.00
2018,03,13,04,49,-10.00
2018,03,13,04,50,-10.00
2018,03,13,04,51,-9.90
2018,03,13,04,52,-10.00
2018,03,13,04,53,-10.00
2018,03,13,04,54,-10.00
2018,03,13,04,55,-10.00
2018,03,13,04,56,-10.00
2018,03,13,04,57,-10.00
2018,03,13,04,58,-10.00
2018,03,13,04,59,-10.00
2018,03,13,05,00,-10.10
2018,03,13,05,01,-10.10
2018,03,13,05,02,-10.10
2018,03,13,05,03,-10.10
2018,03,13,05,04,-10.10
2018,03,13,05,05,-10.10
2018,03,13,05,06,-10.10
2018,03,13,05,07,-10.10
2018,03,13,05,08,-10.10
2018,03,13,05,09,-10.00
2018,03,13,05,10,-10.10
2018,03,13,05,11,-10.00
2018,03,13,05,12,-10.00
2018,03,13,05,13,-10.10
2018,03,13,05,14,-10.00
2018,03,13,05,15,-10.00
2018,03,13,05,16,-10.00
2018,03,13,05,17,-10.00
2018,03,13,05,18,-10.00
2018,03,13,05,19,-10.00
2018,03,13,05,20,-9.90
2018,03,13,05,21,-9.90
2018,03,13,05,22,-10.00
2018,03,13,05,23,-10.00
2018,03,13,05,24,-10.00
2018,03,13,05,25,-10.00
2018,03,13,05,26,-10.00
2018,03,13,05,27,-9.90
2018,03,13,05,28,-10.00
2018,03,13,05,29,-10.00
2018,03,13,05,30,-10.00
2018,03,13,05,31,-10.00
2018,03,13,05,32,-10.00
2018,03,13,05,33,-10.00
2018,03,13,05,34,-10.00
2018,03,13,05,35,-9.90
2018,03,13,05,36,-9.90
2018,03,13,05,37,-9.90
2018,03,13,05,38,-10.00
2018,03,13,05,39,-10.00
2018,03,13,05,40,-10.00
2018,03,13,05,41,-10.00
2018,03,13,05,42,-10.10
2018,03,13,05,43,-10.00
2018,03,13,05,44,-10.00
2018,03,13,05,45,-9.90
2018,03,13,05,46,-10.00
2018,03,13,05,47,-10.00
2018,03,13,05,48,-10.00
2018,03,13,05,49,-10.00
2018,03,13,05,50,-10.10
2018,03,13,05,51,-10.10
2018,03,13,05,52,-10.10
2018,03,13,05,53,-10.10
2018,03,13,05,54,-10.00
2018,03,13,05,55,-10.10
2018,03,13,05,56,-10.10
2018,03,13,05,57,-10.10
2018,03,13,05,58,-10.10
2018,03,13,05,59,-10.10
2018,03,13,06,00,-10.10
2018,03,13,06,01,-10.10
2018,03,13,06,02,-10.10
2018,03,13,06,03,-10.00
2018,03,13,06,04,-10.00
2018,03,13,06,05,-10.00
2018,03,13,06,06,-9.90
2018,03,13,06,07,-9.80
2018,03,13,06,08,-9.80
2018,03,13,06,09,-9.90
2018,03,13,06,10,-9.80
2018,03,13,06,11,-9.80
2018,03,13,06,12,-9.80
2018,03,13,06,13,-9.80
2018,03,13,06,14,-9.80
2018,03,13,06,15,-9.80
2018,03,13,06,16,-9.80
2018,03,13,06,17,-9.80
2018,03,13,06,18,-9.80
2018,03,13,06,19,-9.80
2018,03,13,06,20,-9.80
2018,03,13,06,21,-9.80
2018,03,13,06,22,-9.80
2018,03,13,06,23,-9.80
2018,03,13,06,24,-9.80
2018,03,13,06,25,-9.80
2018,03,13,06,26,-9.80
2018,03,13,06,27,-9.80
2018,03,13,06,28,-9.80
2018,03,13,06,29,-9.80
2018,03,13,06,30,-9.80
2018,03,13,06,31,-9.80
2018,03,13,06,32,-9.80
2018,03,13,06,33,-9.70
2018,03,13,06,34,-9.70
2018,03,13,06,35,-9.80
2018,03,13,06,36,-9.70
2018,03,13,06,37,-9.70
2018,03,13,06,38,-9.70
2018,03,13,06,39,-9.70
2018,03,13,06,40,-9.70
2018,03,13,06,41,-9.60
2018,03,13,06,42,-9.60
2018,03,13,06,43,-9.60
2018,03,13,06,44,-9.60
2018,03,13,06,45,-9.50
2018,03,13,06,46,-9.50
2018,03,13,06,47,-9.50
2018,03,13,06,48,-9.50
2018,03,13,06,49,-9.50
2018,03,13,06,50,-9.50
2018,03,13,06,51,-9.50
2018,03,13,06,52,-9.50
2018,03,13,06,53,-9.50
2018,03,13,06,54,-9.50
2018,03,13,06,55,-9.50
2018,03,13,06,56,-9.50
2018,03,13,06,57,-9.40
2018,03,13,06,58,-9.50
2018,03,13,06,59,-9.50
2018,03,13,07,00,-9.50
2018,03,13,07,01,-9.40
2018,03,13,07,02,-9.40
2018,03,13,07,03,-9.50
2018,03,13,07,04,-9.50
2018,03,13,07,05,-9.60
2018,03,13,07,06,-9.60
2018,03,13,07,07,-9.60
2018,03,13,07,08,-9.60
2018,03,13,07,09,-9.60
2018,03,13,07,10,-9.60
2018,03,13,07,11,-9.60
2018,03,13,07,12,-9.60
2018,03,13,07,13,-9.60
2018,03,13,07,14,-9.60
2018,03,13,07,15,-9.50
2018,03,13,07,16,-9.50
2018,03,13,07,17,-9.50
2018,03,13,07,18,-9.50
2018,03,13,07,19,-9.50
2018,03,13,07,20,-9.50
2018,03,13,07,21,-9.50
2018,03,13,07,22,-9.50
2018,03,13,07,23,-9.50
2018,03,13,07,24,-9.50
2018,03,13,07,25,-9.50
2018,03,13,07,26,-9.60
2018,03,13,07,27,-9.50
2018,03,13,07,28,-9.50
2018,03,13,07,29,-9.50
2018,03,13,07,30,-9.50
2018,03,13,07,31,-9.50
2018,03,13,07,32,-9.50
2018,03,13,07,33,-9.50
2018,03,13,07,34,-9.50
2018,03,13,07,35,-9.60
2018,03,13,07,36,-9.50
2018,03,13,07,37,-9.50
2018,03,13,07,38,-9.50
2018,03,13,07,39,-9.70
2018,03,13,07,40,-9.70
2018,03,13,07,41,-9.70
2018,03,13,07,42,-9.70
2018,03,13,07,43,-9.70
2018,03,13,07,44,-9.70
2018,03,13,07,45,-9.70
2018,03,13,07,46,-9.70
2018,03,13,07,47,-9.70
2018,03,13,07,48,-9.70
2018,03,13,07,49,-9.70
